Home   Weather   Samford   Past weeks
Flag for Australia

Past Weather in Samford, Queensland, Australia — Yesterday and Last 2 Weeks

Now
64 °F

Passing clouds.


Feels Like: 64 °F
Forecast: 77 / 60 °F
Wind: No wind

Location: Brisbane Airport M. O

Current Time: Oct 23, 2019 at 12:22:46 am

Latest Report: Oct 22, 2019 at 11:30 pm


Visibility: N/A

Pressure: 30.24 "Hg

Humidity: 83%

Dew Point: 59 °F

Location of SamfordLocation

Past Weather in Samford — Graph

°F

Samford Temperature Yesterday

Maximum temperature yesterday: 73 °F (at 11:00 am)
Minimum temperature yesterday: 57 °F (at 5:30 am)
Average temperature yesterday: 67 °F

High & Low Weather Summary for the Past Weeks

 TemperatureHumidityPressure
High79 °F (Oct 8, 12:00 pm)100% (Oct 7, 11:30 pm)30.27 "Hg (Oct 7, 11:30 pm)
Low54 °F (Oct 12, 9:00 am)38% (Oct 9, 12:30 pm)29.71 "Hg (Oct 8, 3:00 pm)
Average68 °F74%30.01 "Hg
* Reported Oct 7 11:00 pm — Oct 22 11:00 pm, Samford. Weather by CustomWeather, © 2019

Note: Actual official high and low records may vary slightly from our data, if they occured in-between our weather recording intervals... More about our weather records

Advertising

Samford Weather History for the Previous 24 Hours

Scroll right to see more
 ConditionsComfort  
Time TempWeatherWind HumidityBarometerVisibility
11:00 pm
Tue, Oct 22
66 °FPassing clouds.1 mph78%30.24 "HgN/A
10:30 pm66 °FPassing clouds.5 mph78%30.24 "HgN/A
10:00 pm68 °FPassing clouds.6 mph69%30.24 "HgN/A
9:30 pm68 °FPassing clouds.5 mph69%30.24 "HgN/A
9:00 pm68 °FPassing clouds.6 mph69%30.24 "HgN/A
8:30 pm68 °FPassing clouds.6 mph69%30.24 "HgN/A
8:00 pm68 °FPassing clouds.7 mph69%30.24 "HgN/A
7:30 pm68 °FPassing clouds.7 mph69%30.24 "HgN/A
7:00 pm68 °FPassing clouds.7 mph64%30.24 "HgN/A
6:30 pm68 °FPassing clouds.7 mph64%30.21 "HgN/A
6:00 pm70 °FPassing clouds.8 mph60%30.21 "HgN/A
5:30 pm70 °FPartly sunny.8 mph64%30.21 "HgN/A
5:00 pm70 °FPartly sunny.9 mph64%30.18 "HgN/A
4:30 pm70 °FScattered clouds.10 mph69%30.18 "HgN/A
4:00 pm72 °FPassing clouds.10 mph61%30.18 "HgN/A
3:30 pm72 °FPassing clouds.10 mph53%30.18 "HgN/A
3:00 pm73 °FPassing clouds.12 mph50%30.18 "HgN/A
2:30 pm72 °FPassing clouds.10 mph50%30.18 "HgN/A
2:00 pm72 °FScattered clouds.12 mph57%30.18 "HgN/A
1:30 pm72 °FPassing clouds.13 mph53%30.21 "HgN/A
1:00 pm72 °FScattered clouds.14 mph65%30.21 "HgN/A
12:30 pm72 °FPartly sunny.14 mph57%30.21 "HgN/A
12:00 pm73 °FPartly sunny.10 mph53%30.21 "HgN/A
11:30 am72 °FBroken clouds.15 mph57%30.24 "HgN/A
11:00 am73 °FBroken clouds.9 mph50%30.24 "HgN/A
10:30 am72 °FScattered clouds.8 mph53%30.24 "HgN/A
10:00 am72 °FBroken clouds.6 mph53%30.27 "HgN/A
9:30 am72 °FScattered clouds.7 mph53%30.27 "HgN/A
9:00 am72 °FPartly sunny.6 mph57%30.27 "HgN/A
8:30 am70 °FPassing clouds.7 mph57%30.27 "HgN/A
8:00 am70 °FPassing clouds.9 mph60%30.27 "HgN/A
7:30 am68 °FScattered clouds.8 mph60%30.27 "HgN/A
7:00 am66 °FScattered clouds.9 mph64%30.24 "HgN/A
6:30 am63 °FPassing clouds.8 mph73%30.24 "HgN/A
6:00 am61 °FPassing clouds.8 mph77%30.24 "HgN/A
5:30 am57 °FPassing clouds.8 mph82%30.24 "HgN/A
5:00 am59 °FPassing clouds.8 mph77%30.24 "HgN/A
4:30 am61 °FPassing clouds.6 mph77%30.21 "HgN/A
4:00 am59 °FPassing clouds.7 mph82%30.21 "HgN/A
3:30 am61 °FPartly cloudy.7 mph77%30.21 "HgN/A
3:00 am61 °FPartly cloudy.7 mph77%30.21 "HgN/A
2:30 am61 °FPassing clouds.6 mph77%30.21 "HgN/A
2:00 am61 °FPassing clouds.6 mph77%30.21 "HgN/A
1:30 am61 °FPassing clouds.6 mph77%30.24 "HgN/A
1:00 am61 °FPassing clouds.5 mph77%30.24 "HgN/A
12:30 am64 °FPassing clouds.6 mph68%30.24 "HgN/A
12:00 am66 °FPassing clouds.6 mph64%30.27 "HgN/A
Weather by CustomWeather, © 2019

See weather overview